Theta_e
307 307 307 311 318 322 326 330 332 324 322 324 320 319 314 310 312 313 313 314 318 316 311 312 319 326 326 324 321 319 318 317 317 322 329 322 314 312 312 313 315 315 317 322 324 329 333 334 335 336 337 338 338 338 338 339 338 337 337 337 336 335 335 336 335 336 338 337 337 337 335 334 334 334 335 336 336 338 337 337 336 336 336 335 334 331 330 330 331 331 330 329 328 329 329 328 328
311 310 309 316 320 323 327 329 340 331 327 326 316 315 312 310 313 313 313 313 315 313 310 312 319 322 321 320 318 318 316 314 311 311 314 312 310 309 310 312 313 315 316 321 325 327 330 332 334 335 337 338 338 338 338 339 338 338 337 336 336 336 335 336 335 335 337 337 336 336 335 333 333 333 334 334 336 337 336 337 336 336 336 334 334 332 328 325 326 328 329 328 327 327 328 328 328
316 315 313 317 320 322 329 329 337 337 337 330 315 312 311 311 312 312 311 312 313 310 312 318 322 318 319 321 318 317 313 311 308 306 308 308 308 307 309 311 313 314 314 319 324 326 328 330 332 334 336 338 337 337 337 337 338 339 337 337 337 336 335 335 335 335 336 337 336 334 333 332 332 332 333 333 334 336 336 337 336 336 335 334 334 333 327 320 320 322 326 327 326 324 324 326 326
316 319 319 321 324 324 330 329 329 335 333 325 317 312 310 311 310 310 309 312 313 309 312 321 325 316 316 319 315 313 308 308 307 304 305 305 305 305 308 310 312 315 313 317 323 325 327 328 329 333 335 336 336 336 335 333 335 338 337 337 337 337 335 336 335 334 336 335 334 332 331 330 329 329 329 329 332 335 336 336 336 335 335 334 334 333 327 321 319 319 323 326 326 325 322 322 323
314 319 320 321 327 321 322 321 318 323 320 317 318 313 310 309 308 308 309 313 313 309 310 317 325 316 312 313 311 310 306 305 305 303 303 303 304 304 306 308 311 315 315 318 321 323 325 326 328 331 333 335 335 336 336 334 333 334 335 337 338 336 335 336 335 335 335 334 332 330 328 327 326 325 325 326 328 333 336 336 336 335 333 334 334 333 328 323 321 319 322 325 327 327 324 319 318
315 316 315 315 316 313 317 316 312 313 310 312 314 311 309 308 306 307 309 313 312 309 307 311 320 317 312 309 307 306 303 302 303 302 301 302 303 304 306 307 311 314 316 318 320 321 323 326 328 330 331 333 335 334 335 336 334 332 335 337 338 336 336 336 335 335 334 332 331 328 326 325 325 324 324 325 325 329 333 335 335 335 334 334 334 333 329 325 322 320 321 325 327 328 325 320 317
318 319 317 317 313 310 315 313 311 312 308 309 310 308 308 307 305 308 311 314 314 310 307 307 311 320 318 311 308 304 301 301 300 300 300 301 302 304 305 305 310 314 314 317 319 320 322 325 328 328 329 330 333 333 334 336 336 334 334 337 338 337 336 335 335 336 334 333 331 329 326 326 326 324 324 322 321 323 329 332 334 336 334 333 333 332 330 326 324 321 321 325 326 326 325 322 321
316 319 315 317 317 313 315 311 310 311 308 307 307 307 308 306 305 310 313 312 313 310 308 305 308 320 321 315 313 307 301 299 298 298 298 299 301 303 304 304 306 311 313 315 317 319 321 324 326 326 327 329 331 333 334 335 336 336 334 333 336 337 336 336 337 337 335 333 333 330 326 327 326 325 325 320 317 318 324 328 333 335 333 332 331 331 329 327 326 321 321 324 324 323 322 322 323
312 317 317 317 317 313 315 312 310 309 308 307 305 307 307 304 305 309 311 309 308 310 308 305 309 316 317 317 315 307 302 299 297 298 297 299 301 301 303 303 303 306 310 312 315 317 319 321 323 325 326 327 329 332 333 333 335 336 334 331 333 334 336 338 337 336 334 333 334 333 329 327 327 328 325 320 319 319 321 326 330 333 331 331 331 330 328 326 326 323 321 323 323 323 321 321 323
314 316 319 318 316 315 314 313 312 308 306 306 304 305 305 303 306 307 308 308 305 309 308 305 308 309 313 317 312 305 302 298 297 298 298 300 301 301 302 304 304 304 307 311 313 315 317 319 321 323 325 327 328 329 331 332 333 334 335 333 332 332 333 336 337 336 335 334 335 336 333 329 328 329 326 322 322 322 323 327 329 332 331 330 331 330 328 325 326 326 324 324 326 325 321 319 322
322 316 316 321 323 322 316 313 311 308 307 307 305 306 305 304 307 306 306 306 304 308 307 306 306 305 311 315 310 304 301 299 297 296 298 300 301 302 301 303 305 305 306 309 312 313 315 317 319 321 323 326 327 327 329 330 332 333 334 334 334 333 331 332 334 335 335 335 335 335 334 331 327 326 325 323 323 325 326 328 329 331 331 329 330 330 329 327 327 329 327 325 328 327 323 318 319
323 316 318 325 321 318 315 313 310 310 311 307 305 305 304 304 307 307 306 305 304 307 306 305 304 306 312 311 308 305 301 299 295 295 297 299 301 302 302 302 304 305 305 308 311 312 313 316 317 318 320 323 325 326 327 328 330 332 333 334 334 333 332 331 331 331 332 333 336 335 333 332 330 324 322 322 324 328 328 328 329 329 330 328 330 330 329 329 328 330 328 326 329 329 325 318 317
320 316 321 317 311 314 314 312 310 312 311 306 304 303 304 305 305 305 306 306 304 306 305 304 303 306 311 306 306 305 300 297 294 296 297 298 300 301 302 302 303 304 304 306 309 311 312 314 316 317 318 319 322 324 326 327 328 330 332 334 334 334 333 333 331 330 328 328 332 334 334 333 332 327 321 320 324 329 330 329 329 329 329 329 330 329 330 329 328 330 326 326 329 330 325 318 318
316 316 319 314 309 314 312 311 313 314 309 304 304 303 305 305 303 304 306 307 305 305 304 303 302 306 308 304 307 305 299 296 294 295 295 297 298 301 303 302 303 304 304 304 306 309 310 313 314 315 315 317 319 321 325 326 326 327 329 331 332 334 334 334 332 329 328 326 326 330 332 332 332 330 325 323 325 327 331 331 329 329 329 330 330 330 331 329 328 327 324 327 330 329 325 319 320
313 312 316 317 315 314 310 309 311 312 306 304 304 303 306 304 302 305 304 306 305 302 302 302 302 305 306 304 307 303 297 294 294 294 294 296 297 300 302 302 303 303 303 303 305 308 309 311 313 313 313 315 317 318 321 323 325 325 326 328 329 332 334 333 330 327 326 326 325 327 330 331 331 332 329 328 328 327 330 332 330 329 331 331 331 330 331 330 328 326 325 328 331 330 324 320 321
308 313 319 319 315 312 308 307 308 310 306 304 305 303 305 304 302 304 302 303 305 302 303 304 303 304 305 304 305 299 295 294 294 294 294 294 294 297 300 301 303 303 303 302 303 306 307 309 311 312 312 313 314 316 318 319 322 323 324 327 328 330 332 330 328 326 325 325 326 327 329 329 330 331 331 330 331 328 329 332 332 330 331 331 331 332 331 330 328 325 324 325 329 329 324 321 322
306 312 316 313 311 310 307 306 308 308 305 305 306 304 306 306 304 302 299 301 304 304 304 303 302 302 302 303 301 296 294 294 293 294 293 292 293 294 296 298 300 302 303 301 301 303 306 307 308 309 310 311 313 314 316 316 319 321 323 326 327 330 332 330 328 326 326 325 326 327 328 328 328 329 331 331 331 331 329 331 332 331 331 331 331 332 331 330 327 323 321 319 324 326 321 321 322
312 315 309 308 308 307 305 305 306 304 304 306 305 303 305 306 304 303 301 303 304 303 304 303 303 301 300 299 298 295 294 293 292 292 291 291 292 292 292 293 294 296 299 301 301 301 303 306 306 306 307 308 311 313 314 315 317 319 322 325 326 329 332 332 330 328 327 327 326 327 328 328 327 328 329 330 331 331 331 331 332 332 331 332 333 333 332 330 325 321 320 318 322 324 320 322 322
312 314 309 308 307 305 304 305 305 304 305 305 305 304 305 304 303 303 304 307 305 303 303 303 304 303 300 299 296 294 293 292 291 291 290 290 291 291 292 292 292 293 294 297 301 300 300 303 305 305 305 306 307 310 312 313 316 318 320 323 325 329 331 332 332 330 328 328 327 327 328 328 328 328 329 329 330 330 331 332 332 333 332 332 333 333 332 329 324 322 321 319 322 323 320 322 323
306 309 312 308 306 306 304 305 305 304 304 305 307 305 305 304 303 304 304 307 307 304 303 302 303 302 301 298 294 293 292 291 291 290 290 290 290 291 291 292 292 293 293 294 298 301 300 300 303 304 304 305 306 307 309 312 314 317 319 320 323 327 330 331 332 332 329 328 328 327 328 328 328 329 329 330 330 330 331 332 333 333 333 332 332 333 332 327 324 323 321 320 321 321 321 322 323
306 307 312 307 305 307 304 306 306 304 304 306 308 305 305 304 303 305 304 307 308 305 303 301 302 301 301 298 293 292 291 291 291 290 290 290 290 291 291 291 292 292 293 294 296 299 300 299 300 302 303 303 305 305 306 309 312 316 317 319 321 324 328 331 332 332 329 329 329 328 327 328 329 328 328 330 331 331 331 332 333 333 333 332 332 332 329 325 325 324 321 321 321 321 322 323 324
306 305 308 307 306 305 304 307 306 304 305 307 308 305 304 303 304 306 304 305 306 303 302 301 302 300 299 297 292 291 291 290 290 290 290 290 290 290 291 291 292 293 293 294 295 297 299 299 299 300 301 302 303 303 303 306 309 313 315 316 318 321 325 329 331 331 330 329 329 329 328 328 328 327 326 329 331 331 331 331 332 333 332 332 332 330 326 324 325 325 323 322 322 322 323 324 324
305 304 305 306 306 304 304 307 306 305 306 307 306 303 303 305 305 304 304 306 305 301 299 299 298 295 294 294 292 291 290 290 290 290 290 290 290 290 291 292 292 293 293 294 294 296 297 298 299 299 299 300 301 301 302 303 306 310 313 312 314 318 323 327 329 331 331 330 330 329 329 329 328 327 326 328 330 331 331 331 331 332 331 331 332 329 325 324 325 325 324 323 323 323 324 325 324
304 305 305 304 304 304 305 305 307 307 305 303 303 302 303 306 305 303 304 308 307 300 296 296 295 294 293 292 291 290 290 290 290 290 290 290 290 290 291 292 292 292 293 294 295 295 296 297 298 299 298 298 300 301 301 302 304 307 310 311 311 314 320 323 326 331 331 330 330 329 329 328 328 327 326 328 331 331 331 331 331 331 331 332 332 328 325 324 324 325 324 323 324 324 324 324 323
305 305 305 304 303 305 305 305 308 309 307 303 302 304 305 304 303 304 307 309 306 298 294 294 293 294 294 292 290 290 290 290 290 290 290 290 289 290 291 292 292 292 293 294 295 295 295 296 298 298 297 297 299 300 300 300 302 305 308 309 308 311 315 317 323 329 329 330 330 329 327 328 329 328 327 329 332 331 331 331 331 332 332 332 332 329 326 324 324 325 325 324 325 324 323 324 323
305 305 305 305 304 305 305 306 307 307 307 305 304 305 305 302 302 305 307 306 302 298 296 293 293 297 297 293 290 290 290 290 291 290 290 290 289 290 290 292 292 292 293 294 295 295 295 296 297 298 297 297 298 299 299 299 300 303 305 306 306 309 310 312 320 326 327 330 329 326 325 328 330 329 329 330 332 332 331 331 331 332 332 331 331 329 327 325 325 326 326 326 325 324 324 324 322
305 306 306 306 305 305 305 306 305 305 306 304 303 305 305 304 303 306 306 303 300 300 302 299 299 302 301 295 290 291 291 290 291 290 290 290 289 290 290 291 292 292 293 293 295 295 295 295 296 297 297 297 297 298 298 298 299 301 302 304 305 306 308 309 316 323 326 328 325 323 325 328 330 329 329 330 330 331 330 331 331 331 331 331 331 330 328 327 326 326 327 327 326 325 326 324 322
305 306 306 307 307 305 304 305 303 303 303 302 302 302 304 306 305 305 304 303 302 302 303 304 304 304 303 298 291 291 292 291 291 290 290 289 289 289 290 291 291 292 293 293 295 296 295 295 295 296 296 296 297 297 297 297 298 300 300 302 304 305 305 307 311 317 322 325 323 325 328 328 329 329 328 328 328 330 330 330 330 329 329 329 330 330 328 328 327 327 328 328 327 326 326 324 323
305 305 307 309 309 305 302 304 302 302 304 302 302 301 303 306 305 303 301 302 304 304 305 306 305 304 304 302 294 291 292 291 291 290 290 289 289 289 290 291 291 291 292 292 294 296 295 295 295 296 296 296 297 297 296 295 297 299 299 300 303 304 304 304 307 312 318 323 323 324 327 327 327 327 326 326 325 327 329 329 328 328 328 328 329 329 327 327 327 327 328 328 327 327 326 325 323
304 304 308 312 312 305 302 303 302 302 304 301 300 302 304 305 305 303 301 302 303 304 307 306 305 305 305 305 300 294 291 291 291 290 290 289 289 289 289 290 290 291 291 291 293 294 295 294 295 295 295 295 296 297 296 295 296 298 298 298 302 304 303 303 304 308 314 319 321 323 325 325 325 325 324 324 323 323 326 327 327 327 327 327 328 328 327 328 327 326 326 327 326 326 325 323 323
306 305 307 310 310 306 303 302 302 302 303 302 302 304 306 305 305 302 300 302 302 303 307 307 306 306 305 304 303 297 292 292 291 290 291 290 289 289 289 289 290 290 290 291 292 293 294 294 294 294 294 295 295 297 296 294 295 296 297 297 300 303 303 301 301 305 309 313 319 322 322 321 322 323 323 324 324 324 324 325 326 325 325 326 326 327 327 327 326 325 324 324 324 323 323 321 321
308 308 310 310 308 307 304 300 301 302 302 303 305 308 307 306 306 302 300 301 301 303 307 308 307 306 306 303 302 300 295 292 292 291 291 290 289 288 289 289 289 289 290 291 291 292 293 293 293 294 295 294 296 297 294 293 294 295 296 297 299 301 302 300 299 302 305 309 316 319 320 321 321 322 322 323 323 324 323 323 323 323 323 324 324 324 325 325 324 323 322 322 322 321 321 319 317
308 308 311 310 307 308 305 301 300 300 303 304 305 307 307 306 306 303 300 301 302 304 307 308 307 306 305 302 301 301 297 293 292 291 291 290 290 289 288 289 289 289 289 290 291 292 293 293 295 296 295 295 297 295 293 293 294 295 295 296 298 299 300 299 297 299 302 308 314 315 317 320 320 321 321 321 322 322 322 321 321 321 322 322 323 322 322 322 321 321 320 320 321 320 319 317 313
308 309 310 308 306 307 306 303 300 299 303 305 303 306 308 306 306 303 301 300 302 304 307 307 306 305 304 302 302 301 298 296 293 291 291 291 290 289 288 288 289 288 289 289 291 292 292 293 295 296 295 296 296 293 292 294 293 295 296 296 298 298 297 297 298 298 298 305 311 309 311 317 318 318 319 319 319 321 321 320 320 319 320 320 321 320 320 320 319 320 319 318 319 318 318 315 311
307 308 309 308 306 307 306 304 301 299 304 305 305 308 310 309 307 304 301 300 302 304 306 307 307 306 304 302 302 299 297 296 293 291 291 291 290 290 288 288 288 288 288 289 290 292 292 292 292 294 295 295 294 292 293 293 294 296 296 297 299 298 295 295 299 299 296 301 306 304 308 314 316 316 317 316 314 317 319 319 318 318 318 319 319 319 318 318 318 317 317 317 317 316 314 312 309
305 305 306 308 307 306 305 303 300 299 305 308 305 307 310 311 307 304 303 301 302 305 305 307 307 306 305 303 301 299 298 296 292 291 291 291 291 290 289 289 288 288 288 288 289 290 292 292 291 292 293 293 292 292 292 292 294 297 297 300 300 297 293 293 299 300 295 298 301 302 307 311 313 314 315 314 312 315 318 317 317 316 316 317 318 317 316 315 314 314 314 314 314 311 307 305 304
302 306 307 307 305 305 303 302 300 298 305 308 303 306 310 310 307 304 304 303 303 306 307 307 307 306 305 304 302 300 299 295 292 292 292 291 291 290 290 290 288 288 288 288 288 289 291 292 291 290 291 292 292 292 292 291 292 295 297 298 297 293 292 294 298 296 294 297 298 300 304 307 310 310 310 313 313 315 315 314 315 314 313 314 314 313 311 311 311 311 311 311 310 307 302 300 299
303 306 309 307 303 303 301 299 299 298 304 306 303 309 311 306 307 305 305 305 305 306 306 306 305 304 303 303 303 301 298 294 292 292 293 292 292 291 290 290 290 288 288 288 288 289 291 291 291 290 289 291 292 291 291 291 290 292 295 295 293 291 291 292 294 293 295 298 298 298 302 304 307 306 307 310 312 312 311 311 311 309 309 309 308 307 307 308 307 308 309 308 306 303 300 299 298
304 305 307 307 302 303 304 301 300 298 303 306 303 310 311 305 306 305 305 307 308 306 304 303 303 304 305 304 303 301 301 299 295 293 293 293 292 291 291 290 290 289 288 288 288 288 290 291 291 290 289 290 291 291 291 291 291 291 293 293 291 291 291 291 291 294 297 298 298 300 302 304 305 304 305 306 307 307 307 307 307 305 304 304 304 304 304 305 306 307 308 307 305 302 300 300 300
304 304 305 306 302 303 308 306 301 299 303 302 301 310 315 309 306 305 304 304 306 305 304 303 302 302 303 302 300 301 302 302 300 295 292 293 292 291 291 291 291 290 289 288 288 288 289 291 291 290 290 289 289 290 290 291 291 291 292 292 291 291 292 291 291 292 295 296 297 299 301 302 303 304 303 304 304 305 305 305 305 304 302 302 303 303 302 303 304 305 306 306 305 303 300 300 301
306 304 304 303 300 299 303 303 300 302 303 299 302 314 318 312 309 305 303 304 305 304 305 306 303 301 302 302 302 302 300 299 301 299 293 292 292 292 291 291 291 291 290 289 288 288 288 289 291 290 290 289 289 289 289 290 291 291 291 291 291 291 291 291 291 291 291 292 293 295 296 298 299 300 301 302 303 304 304 304 303 303 302 301 302 302 302 302 303 304 304 304 305 303 300 298 299
309 305 302 300 299 299 300 300 301 312 312 300 302 315 320 316 310 304 304 308 306 302 304 305 303 304 306 308 308 306 303 298 297 297 293 292 292 291 291 291 291 292 291 290 288 288 288 288 289 290 290 289 289 288 289 289 289 290 290 290 290 289 289 290 289 289 289 290 290 291 292 293 294 295 296 298 299 300 300 300 299 299 299 299 299 299 299 299 300 301 302 303 302 302 301 298 294
308 303 300 298 298 300 301 300 305 315 312 301 300 311 319 318 311 305 306 309 307 302 304 304 302 305 306 308 308 306 306 301 297 295 291 291 292 291 292 292 292 292 291 291 289 288 288 288 288 289 290 289 289 288 288 288 288 288 289 289 289 288 288 288 288 288 288 288 289 289 289 290 290 291 292 293 293 294 295 295 295 295 295 295 295 296 296 296 296 296 297 299 299 299 300 297 292
306 300 299 299 298 300 302 304 310 310 306 304 303 306 313 318 315 309 305 306 306 303 304 303 302 303 304 306 307 306 305 303 302 299 292 291 293 292 292 292 292 292 291 291 290 289 288 288 288 289 289 289 289 289 288 288 288 288 288 288 288 288 287 287 287 288 288 288 288 288 289 289 289 289 290 290 290 291 291 291 291 292 291 291 292 292 292 292 292 293 293 294 294 294 295 294 292
303 298 298 298 297 301 302 307 313 306 307 315 309 302 309 319 317 309 304 304 304 303 303 303 302 301 302 304 305 305 304 300 297 296 292 291 293 293 292 292 292 292 292 292 291 290 288 288 288 288 289 289 289 289 288 288 288 287 287 287 288 287 287 287 287 287 288 288 288 288 288 288 288 289 289 289 289 289 289 290 290 290 290 290 290 290 290 290 290 290 291 291 291 291 291 291 290
300 297 299 299 299 302 302 307 311 307 313 319 308 302 307 319 319 308 305 305 302 302 303 302 301 300 300 302 303 303 303 301 295 292 292 292 293 293 292 292 292 292 292 292 292 291 289 288 288 288 288 288 289 289 289 288 288 288 287 287 287 287 287 287 287 287 287 287 287 287 287 287 288 288 288 288 289 289 289 289 289 289 290 289 290 290 289 290 290 290 290 290 290 290 289 290 289
299 298 301 302 302 303 302 303 305 310 321 317 305 300 303 315 319 309 304 303 300 301 303 302 301 301 300 300 301 301 301 301 296 291 292 294 294 294 294 293 293 293 292 292 292 291 291 289 288 288 288 288 288 288 289 288 288 288 287 287 287 287 287 287 287 287 287 287 287 287 287 287 287 287 287 288 288 288 288 289 289 289 289 289 289 289 289 289 289 289 289 289 289 289 289 289 289
299 301 303 306 308 306 307 311 311 314 320 313 305 300 300 310 316 308 305 303 300 300 302 302 301 301 301 300 300 299 298 299 297 293 292 294 295 295 295 295 294 293 293 293 292 292 291 290 289 288 288 288 288 288 288 288 288 288 288 287 287 287 287 287 287 287 287 287 287 287 287 287 287 287 287 287 287 288 288 288 288 288 288 289 289 289 289 289 289 289 289 289 289 289 289 289 288
300 302 306 314 322 318 316 322 319 318 315 306 303 302 302 310 312 308 306 304 300 300 300 301 301 301 301 300 299 299 297 298 298 295 291 291 293 294 295 296 295 295 294 293 293 292 292 292 290 290 289 288 288 288 288 288 288 288 288 288 287 287 287 287 287 287 287 287 287 287 287 287 287 287 287 287 287 288 288 288 288 288 288 288 288 288 288 288 288 288 288 288 288 288 288 288 288
302 302 305 315 323 321 324 321 313 315 315 304 299 302 308 311 308 307 306 302 300 300 299 300 300 300 301 300 299 298 298 297 298 295 291 291 293 294 295 296 296 296 295 294 293 292 292 292 292 291 290 289 288 288 287 287 288 288 288 288 288 287 287 287 287 287 287 287 287 287 287 287 287 287 287 287 287 287 287 288 288 288 288 288 288 288 288 288 288 288 288 288 287 287 287 287 287
301 299 302 310 310 311 319 318 313 314 312 306 302 304 311 313 306 304 305 301 300 301 300 299 301 301 299 299 299 299 298 297 297 295 291 292 294 295 296 296 296 296 296 296 295 293 293 293 293 292 291 290 289 288 288 287 287 287 287 288 287 287 287 287 287 286 286 286 286 286 287 286 287 287 287 287 287 287 287 287 287 287 287 287 288 288 288 288 288 288 288 287 287 286 286 286 286
301 299 305 308 304 306 308 305 305 305 306 311 311 307 307 308 304 302 304 302 300 304 305 303 303 301 298 300 300 299 299 297 298 297 293 292 295 296 296 296 296 296 297 297 296 295 294 293 293 293 293 292 291 290 289 288 288 287 287 287 287 287 287 287 287 287 286 286 286 286 286 286 286 286 286 286 287 287 287 287 287 287 287 287 287 288 288 288 288 288 288 287 287 286 286 286 286
305 304 306 300 296 304 307 300 298 299 307 314 310 308 309 307 304 302 305 304 300 304 307 304 303 301 300 302 301 299 299 298 298 296 292 292 294 295 296 296 296 296 296 297 297 297 296 295 294 293 293 293 292 292 291 290 289 288 288 287 287 287 287 287 287 287 287 286 286 286 286 286 286 286 286 286 286 286 286 287 287 287 287 287 287 287 288 288 288 288 288 287 287 286 286 286 286
305 308 302 296 296 302 305 308 308 308 315 315 307 309 311 309 310 307 304 303 302 304 306 305 304 303 302 302 300 298 298 297 296 293 291 292 293 295 296 296 296 296 296 296 296 296 296 296 295 294 294 293 293 292 291 291 290 290 289 288 288 287 287 287 287 287 287 286 286 286 286 286 286 286 286 286 286 286 286 286 286 286 287 287 287 287 287 287 288 287 287 287 287 286 287 287 286
301 302 297 298 305 307 305 310 313 311 313 314 309 307 306 307 314 313 307 307 309 307 306 305 304 304 303 301 300 299 298 297 297 295 292 291 293 295 296 296 296 296 296 296 296 296 296 296 296 295 295 294 293 292 292 292 291 291 290 289 289 288 288 287 287 287 287 287 286 286 286 286 286 286 286 286 286 286 286 286 286 286 286 286 287 287 287 287 287 287 287 286 286 286 286 286 287
303 303 300 302 305 305 304 303 305 309 311 311 311 312 314 311 312 314 311 311 310 308 306 306 306 305 302 300 299 299 298 297 298 297 292 291 293 295 296 296 296 296 296 296 297 297 297 296 296 295 295 295 294 294 293 292 292 291 291 290 290 289 289 288 287 287 287 287 287 286 286 286 286 286 286 286 286 286 286 286 286 286 286 286 286 286 287 287 287 287 286 286 286 286 286 286 286
305 306 304 305 302 300 302 299 298 306 311 309 308 314 320 312 307 310 311 309 309 306 305 305 306 305 302 299 299 298 298 297 297 295 292 290 294 296 296 296 296 296 296 297 297 297 297 297 296 296 296 295 295 294 294 293 293 292 292 291 291 290 289 289 288 288 288 287 287 287 286 286 286 286 286 286 286 286 286 286 286 286 286 286 286 286 286 286 287 287 287 286 286 286 286 286 286
300 303 302 303 302 302 308 306 299 300 304 306 306 309 314 308 303 306 308 308 307 304 302 304 305 303 301 299 299 298 297 297 297 293 290 290 292 295 296 297 297 297 297 297 297 297 297 297 297 296 296 296 295 295 294 294 294 293 292 292 292 291 290 289 289 289 288 288 288 287 287 286 286 286 286 286 286 285 285 285 285 286 286 286 286 286 286 286 286 287 286 286 286 286 286 286 286
Wind_Speed
8 6 4 3 7 6 4 5 2 3 4 3 2 1 2 3 2 3 7 7 3 3 6 4 5 6 7 8 11 11 10 8 4 3 2 6 23 26 26 37 36 33 35 34 29 17 12 11 12 13 12 10 8 7 8 9 9 9 10 10 9 9 9 9 8 7 7 7 8 6 7 7 6 6 6 6 6 5 7 9 9 11 14 12 10 10 10 10 10 10 10 9 9 10 10 10 11
8 4 1 2 8 6 1 4 3 2 5 3 3 1 4 5 4 4 6 5 2 7 7 4 1 8 9 11 10 9 9 7 5 1 5 16 25 23 31 37 33 33 34 33 28 19 15 13 14 12 11 10 9 7 7 9 10 10 10 10 10 11 10 10 9 8 7 7 7 7 7 7 7 6 6 6 6 5 5 8 9 9 12 13 11 9 9 8 8 9 9 9 9 9 10 10 10
8 3 2 2 5 7 1 5 4 2 5 3 2 1 4 5 5 5 6 5 5 8 6 3 2 4 3 6 4 5 5 4 5 5 7 17 19 25 37 35 32 30 30 32 26 21 18 16 16 11 10 10 9 7 7 8 9 11 10 10 11 12 12 12 11 10 9 9 9 8 8 8 8 7 7 6 5 4 4 6 8 9 10 12 11 9 7 6 6 8 9 9 9 9 10 11 10
10 5 3 3 3 6 4 5 2 3 4 2 1 3 4 3 6 7 7 6 6 7 4 2 3 4 4 6 4 4 4 1 7 10 8 17 19 28 35 32 33 28 29 30 26 23 19 19 18 11 9 8 8 8 9 8 9 11 12 12 13 13 12 13 14 12 10 10 11 10 10 9 9 8 7 6 5 5 5 6 7 9 10 11 10 8 6 5 5 6 8 9 8 9 9 10 10
16 14 7 6 4 3 3 3 2 4 3 2 2 3 5 4 7 7 8 7 4 8 7 4 2 2 4 5 3 2 4 5 7 13 11 18 24 29 28 29 33 29 29 28 26 24 19 19 18 12 8 8 8 9 11 10 10 11 12 14 15 14 12 14 14 13 12 12 12 11 11 9 9 8 7 7 8 7 6 6 7 11 12 11 9 7 6 5 4 5 7 8 7 7 8 9 9
11 19 19 15 5 1 4 4 4 5 1 2 2 3 6 5 7 8 8 6 2 6 8 6 2 2 3 3 4 5 5 5 7 15 16 21 27 26 24 27 31 30 28 26 26 24 20 18 17 15 9 9 9 8 10 12 12 11 13 14 15 14 13 14 15 14 15 14 13 12 11 10 10 9 9 9 9 9 8 7 8 11 12 12 10 7 6 5 4 5 6 7 7 6 7 7 8
3 8 13 13 5 3 5 4 4 3 1 2 2 3 6 6 7 7 8 5 1 5 7 6 2 1 3 1 3 7 11 13 7 14 20 24 27 26 24 25 29 30 28 26 26 24 22 17 15 16 12 11 10 10 11 12 12 11 12 13 14 16 16 16 16 16 16 15 13 13 12 12 11 11 10 10 10 10 9 8 9 12 12 12 11 9 7 5 5 4 5 7 7 6 6 6 6
10 4 2 6 4 4 5 4 3 2 1 2 1 2 4 6 6 5 6 5 2 5 7 8 5 2 2 2 2 5 9 19 15 17 23 26 28 27 25 25 27 29 29 27 25 24 23 18 15 15 14 12 12 12 12 13 12 11 11 12 13 15 17 17 17 17 16 15 14 14 14 13 12 12 11 10 10 10 10 9 9 11 12 11 11 10 8 6 5 4 5 7 6 6 6 6 5
14 7 1 5 5 4 4 3 3 1 1 2 2 3 4 5 4 5 5 5 4 4 7 10 5 2 1 3 3 3 6 22 24 24 27 30 29 27 27 26 26 27 29 28 25 24 23 19 17 16 15 13 12 11 13 14 13 12 11 12 13 13 14 15 16 16 17 17 15 14 13 13 12 11 11 10 9 10 11 10 9 10 12 11 10 10 9 7 5 4 5 6 5 4 4 5 5
9 6 3 4 4 4 4 2 1 1 1 1 3 4 5 5 2 5 4 4 5 4 7 8 3 4 3 2 2 2 8 24 29 31 34 33 30 27 27 27 26 26 29 29 27 26 24 21 17 16 15 13 12 11 12 14 14 13 13 13 13 13 13 14 15 16 17 17 15 12 11 12 12 12 12 11 10 11 12 11 10 10 11 11 11 11 9 8 6 4 4 5 5 3 2 4 5
5 5 3 5 4 4 2 2 2 1 2 2 3 4 5 5 2 4 5 4 5 4 7 7 5 5 3 1 0 2 12 27 31 32 34 34 31 28 27 27 27 26 28 29 27 26 25 22 19 18 15 13 14 12 12 13 14 13 13 15 14 14 13 13 14 15 15 14 13 11 11 11 12 13 13 13 11 12 12 13 12 12 12 12 12 11 10 9 7 6 5 4 4 4 1 2 4
4 4 4 5 3 2 3 4 2 1 4 4 5 6 4 5 4 4 5 5 7 5 5 6 4 3 2 3 1 1 16 27 28 30 32 33 32 28 26 27 27 26 28 28 28 27 26 24 21 20 17 14 14 14 13 13 14 13 13 14 15 15 15 14 14 14 14 13 13 12 13 12 12 13 14 14 13 12 13 13 13 13 13 13 13 12 12 10 9 8 6 4 5 5 1 1 4
4 2 5 4 1 2 3 3 1 3 4 4 3 6 4 4 5 4 3 3 7 6 5 6 3 1 2 3 3 3 14 24 26 29 31 33 32 29 27 27 27 27 28 29 29 28 26 25 23 22 20 17 15 14 15 14 13 13 14 14 15 16 16 15 14 13 13 14 14 14 15 14 12 13 14 15 15 14 14 14 14 14 14 14 14 14 13 11 10 9 7 5 5 4 1 1 4
3 2 5 4 1 3 3 2 1 3 3 3 3 5 5 2 1 2 2 4 7 4 6 8 3 1 3 4 4 3 12 23 27 28 31 32 30 29 28 28 29 28 28 30 30 30 28 25 24 23 22 20 19 16 15 15 14 13 14 16 16 16 16 16 14 13 13 14 15 16 16 16 15 14 14 15 15 15 15 15 14 14 14 15 15 16 14 12 11 9 8 7 6 4 2 2 5
3 3 5 4 2 3 2 3 2 4 2 4 5 5 3 1 0 2 4 4 3 3 5 7 5 2 2 4 3 5 16 25 27 28 31 31 29 28 28 29 30 30 30 30 31 32 30 27 26 25 24 23 22 20 17 15 14 13 13 17 18 16 15 15 14 13 14 14 15 16 16 16 16 16 16 16 16 16 16 16 15 15 15 15 16 16 14 13 11 9 9 8 7 5 3 3 5
3 4 5 4 2 3 2 3 3 3 1 4 6 4 3 3 2 2 2 2 1 5 4 4 5 3 0 2 4 10 19 24 27 29 31 31 31 30 30 31 31 32 32 32 33 33 31 29 28 27 26 25 23 21 20 17 13 14 13 15 18 16 16 15 13 13 14 14 14 14 14 15 17 17 17 16 15 16 17 18 17 17 17 16 16 17 15 13 11 10 9 9 8 6 4 5 6
3 4 6 5 3 3 2 3 2 2 3 5 7 5 4 5 5 1 1 4 2 5 4 2 3 2 1 3 6 14 20 23 27 29 31 31 31 31 32 33 33 34 34 34 34 34 33 30 30 29 28 26 25 23 22 20 15 13 13 13 18 18 16 16 15 14 14 13 14 14 13 14 16 18 17 16 16 17 18 20 19 19 18 18 18 18 17 14 12 10 10 9 9 7 6 6 6
5 4 5 4 2 2 1 0 2 1 2 4 5 4 4 4 6 3 1 4 5 3 3 4 4 1 4 8 9 14 19 23 26 28 29 29 29 29 29 31 32 34 36 36 35 35 33 32 30 30 30 28 26 24 23 22 18 14 11 11 16 19 17 16 18 17 15 14 15 15 14 15 16 18 18 17 17 18 20 21 21 21 19 18 19 19 17 15 13 10 10 10 9 8 8 7 6
5 4 5 2 2 1 3 3 2 2 1 3 3 3 3 2 5 3 3 6 7 6 5 4 5 6 8 12 12 15 19 23 24 25 24 24 25 25 26 29 30 31 33 34 36 35 33 33 31 30 31 29 27 25 24 23 20 16 12 11 13 17 17 18 19 19 17 15 15 15 15 15 16 17 18 17 18 18 20 21 20 20 20 20 21 20 19 17 13 10 10 10 10 9 8 7 7
4 4 6 1 5 3 4 4 4 4 3 2 2 2 2 1 3 2 3 5 7 6 5 4 6 9 9 11 14 15 18 23 24 24 23 23 23 21 23 25 27 28 29 30 33 35 33 32 32 31 30 30 29 26 26 25 22 18 14 12 12 14 17 18 19 20 18 15 15 15 15 16 17 17 17 17 18 18 20 20 20 20 20 22 24 23 21 18 13 11 11 11 11 10 8 8 7
4 3 5 4 5 3 3 5 4 4 4 3 1 1 2 2 1 2 2 3 5 4 3 3 6 9 8 9 14 15 19 24 26 27 27 27 27 26 25 24 25 26 26 28 32 34 33 32 32 31 30 29 29 28 27 26 23 20 16 13 12 12 14 17 18 21 19 16 16 15 15 17 18 18 17 17 18 18 19 20 20 21 19 18 22 24 21 17 14 12 13 13 11 10 9 8 7
5 3 4 5 4 4 3 4 2 3 2 3 1 2 2 2 1 2 4 3 3 3 2 4 5 6 6 7 11 15 19 22 23 26 27 28 29 30 30 30 30 29 28 28 30 33 32 32 31 30 30 29 28 28 28 25 23 21 18 15 13 11 11 15 16 19 19 18 17 16 16 17 19 19 18 18 18 19 19 20 19 20 19 17 19 20 19 17 16 14 14 13 12 10 9 8 7
5 2 1 1 3 2 0 1 1 1 4 4 1 0 1 2 3 1 3 4 5 2 3 4 3 3 5 8 12 14 16 17 18 20 22 24 26 27 29 30 30 31 30 29 29 31 31 31 30 29 29 29 27 28 26 25 24 20 18 17 15 12 9 11 13 19 21 20 20 17 16 16 19 20 19 18 19 20 19 19 19 19 19 17 17 18 18 17 16 15 15 14 12 10 9 8 8
7 4 1 2 1 2 2 2 3 4 3 2 2 2 2 1 2 1 2 6 5 3 3 2 3 6 10 11 12 13 13 15 17 18 20 21 22 24 25 25 26 27 28 29 30 30 31 31 29 28 28 28 27 28 27 25 24 21 17 17 15 12 7 7 9 18 22 23 21 17 16 16 18 20 19 20 21 21 19 19 19 19 18 17 19 19 18 17 16 15 14 14 12 10 9 8 8
8 4 0 2 2 4 4 4 5 5 2 3 3 4 5 3 1 2 5 7 4 4 5 7 7 9 12 10 11 13 15 17 19 21 22 23 23 24 24 24 26 27 28 29 30 30 30 30 28 27 27 28 27 26 27 25 24 21 17 17 16 12 7 3 6 14 17 21 20 16 15 15 17 19 20 22 22 20 19 19 19 19 19 20 22 21 19 18 17 16 15 14 12 10 9 8 8
3 3 1 3 4 6 5 6 8 6 3 4 7 7 6 3 1 2 5 5 5 4 6 8 8 9 8 7 10 12 13 16 18 20 22 23 23 25 26 26 26 27 27 27 29 29 29 29 27 26 25 27 26 23 26 27 23 21 18 16 15 12 9 4 5 11 13 17 17 14 14 15 17 18 20 23 22 20 20 20 20 20 20 20 20 20 19 19 18 17 17 15 14 11 10 9 9
2 4 4 5 3 5 6 6 9 6 1 4 7 7 6 5 3 2 5 5 5 5 6 7 6 7 7 6 10 12 12 13 15 17 20 23 24 25 26 26 28 28 28 28 29 28 27 28 27 25 24 25 25 22 23 27 23 20 18 15 13 10 9 5 6 11 13 15 14 12 14 16 17 16 16 20 21 21 20 17 17 17 18 19 19 18 18 19 19 19 19 16 15 12 9 9 10
3 3 4 6 5 6 7 7 9 6 1 4 3 3 6 5 4 2 7 6 4 4 5 7 6 6 6 6 9 11 12 12 12 14 17 20 21 23 24 24 27 28 28 28 29 28 27 28 26 25 24 24 25 23 22 25 22 19 18 15 11 9 8 6 7 10 12 15 14 12 12 13 15 14 12 14 16 18 16 13 12 13 14 17 19 17 13 13 13 15 16 15 15 12 10 9 9
2 2 3 6 6 7 9 6 7 4 1 4 1 2 6 4 2 4 7 5 3 5 5 6 5 5 6 5 7 9 11 11 11 13 14 17 18 19 21 21 23 25 27 27 27 28 28 28 27 26 25 23 24 23 23 24 22 18 18 15 11 8 8 9 10 11 12 15 16 12 8 7 9 9 8 10 13 15 15 13 11 11 11 12 14 13 9 7 7 8 12 14 13 13 12 10 9
0 3 4 3 6 6 7 5 9 5 2 6 2 2 6 6 5 6 6 4 2 5 5 5 5 5 5 5 5 7 11 11 11 13 13 16 17 17 19 20 21 22 25 26 27 29 29 29 28 26 25 23 23 23 22 23 22 19 17 16 12 9 9 12 12 13 14 15 15 14 11 8 6 6 7 9 10 11 14 14 10 10 10 9 10 10 8 8 7 7 11 14 14 13 12 12 12
0 3 3 3 4 4 7 5 10 8 1 7 5 3 4 7 7 6 6 3 1 4 6 5 5 5 5 5 5 6 9 11 11 13 14 15 16 16 18 19 20 22 24 26 27 28 30 30 29 28 25 24 23 22 22 21 20 19 18 18 15 12 11 14 15 16 17 17 17 16 15 14 11 10 10 10 8 7 11 13 10 8 8 7 8 9 9 9 10 9 10 13 15 14 15 15 16
3 3 3 4 3 4 7 4 8 8 5 7 7 2 4 6 6 6 6 4 1 3 6 5 6 6 5 6 5 5 8 12 12 12 13 15 16 17 17 19 20 22 23 26 27 28 31 31 32 31 28 26 23 21 21 19 18 18 18 18 18 16 14 16 18 18 20 20 21 19 17 15 14 12 10 11 11 9 9 13 12 10 8 6 6 7 7 8 9 11 11 14 15 16 16 17 18
4 4 1 3 4 4 6 3 5 6 5 7 6 2 2 5 6 8 6 4 2 3 6 6 6 6 5 5 5 5 7 10 12 13 13 14 16 16 17 19 20 22 23 24 26 28 30 31 34 34 31 30 24 20 20 18 16 17 19 19 19 20 19 18 19 21 22 22 23 21 18 16 16 15 14 13 14 14 12 13 13 12 11 9 8 8 8 9 8 10 12 14 15 16 16 17 19
4 4 2 2 2 2 4 4 6 8 4 5 6 1 3 6 7 8 6 4 2 3 6 6 6 6 5 5 5 5 5 6 9 13 14 14 16 16 17 18 20 21 23 24 24 26 27 28 31 32 31 29 22 19 19 17 16 18 20 21 21 22 23 20 20 23 24 23 23 21 20 19 17 16 15 15 16 15 13 12 11 10 9 9 9 9 10 11 11 11 13 14 15 16 17 18 20
2 3 2 2 3 2 3 4 5 10 7 5 7 3 4 8 7 7 7 4 2 5 5 5 6 6 5 5 5 5 5 5 9 13 13 14 16 17 18 19 21 22 24 25 24 24 25 25 26 29 30 26 20 18 19 18 17 19 20 22 23 24 25 22 21 23 25 24 23 21 21 20 17 15 13 14 17 17 13 12 10 9 7 7 7 9 11 11 11 12 14 16 16 17 18 21 22
3 2 1 1 3 3 4 4 3 7 6 5 6 4 6 8 8 7 7 5 2 5 5 4 5 5 5 5 5 6 5 6 10 12 12 13 16 18 19 20 21 21 23 24 25 25 24 24 24 26 27 26 21 18 20 20 20 22 23 25 26 24 22 24 24 23 24 25 24 22 22 20 18 17 14 13 16 16 13 11 9 7 7 6 5 8 10 11 12 13 16 18 20 22 23 24 25
3 2 2 3 2 4 4 3 4 4 3 3 4 4 6 6 7 7 7 6 4 5 6 6 6 5 5 6 6 6 6 8 11 12 11 13 16 17 19 20 21 22 23 24 25 25 24 22 23 23 24 26 24 20 20 21 22 24 26 25 24 22 21 24 26 22 22 25 26 25 24 22 19 18 16 14 15 13 12 11 8 8 8 7 8 10 11 11 12 14 16 19 22 25 24 22 22
3 2 2 2 1 4 3 2 5 5 2 2 5 5 5 6 6 6 6 5 4 5 5 6 7 6 6 6 7 7 6 8 12 12 12 14 16 17 19 20 21 22 23 23 24 24 23 22 22 22 22 24 26 21 17 19 20 21 23 20 18 18 20 23 23 22 24 26 26 27 26 24 21 20 19 17 16 14 14 13 12 12 11 11 12 12 12 12 13 13 15 18 20 22 21 18 18
1 1 1 0 3 4 4 2 5 5 2 3 7 5 5 6 6 6 5 4 5 5 4 6 7 7 7 6 6 7 7 8 10 12 13 14 15 17 18 20 21 21 21 22 22 22 22 22 22 22 21 22 24 22 18 17 16 16 18 17 16 18 21 22 23 24 27 27 27 27 26 24 22 22 21 20 19 18 17 16 15 15 14 14 13 14 14 13 14 13 14 16 18 20 18 14 12
1 1 2 1 3 3 2 3 6 6 1 2 4 2 4 6 5 6 4 3 5 5 5 6 5 6 8 7 6 6 7 8 8 9 12 13 15 16 17 19 20 20 21 22 22 22 20 20 20 21 21 21 21 21 20 17 14 12 12 15 17 20 22 22 24 26 28 28 28 28 27 25 24 23 22 21 21 20 19 17 16 15 15 15 14 15 16 16 15 14 13 13 14 18 18 14 11
2 1 4 1 4 2 4 4 7 5 0 2 3 3 4 5 4 6 5 4 5 5 6 6 4 4 6 7 7 6 6 6 7 8 10 13 13 14 15 16 17 18 20 20 21 21 20 19 19 19 20 20 20 19 18 17 15 12 12 15 18 21 23 24 26 27 28 28 28 27 26 25 24 23 23 22 21 20 19 18 16 16 16 16 16 17 17 17 16 14 13 12 13 17 18 18 17
4 1 4 3 3 5 6 5 5 4 2 4 5 4 4 4 4 5 5 6 7 6 7 7 7 6 5 6 7 6 6 5 6 8 10 12 11 12 13 14 15 16 17 18 18 18 18 18 18 18 19 19 19 18 17 16 16 16 17 19 20 22 24 24 24 24 25 25 25 25 24 24 24 24 23 22 21 20 20 19 17 17 17 18 18 18 18 18 17 17 15 15 16 17 18 22 22
3 1 3 1 3 4 3 3 1 3 2 3 4 4 3 4 4 5 5 5 7 6 7 7 7 7 6 6 6 7 7 6 6 9 11 11 9 10 11 12 13 14 14 15 16 16 16 17 17 16 16 17 17 17 16 16 17 17 19 19 19 20 20 19 19 19 21 22 22 23 24 24 24 24 24 23 23 22 21 20 19 19 20 21 20 20 20 19 18 18 16 16 17 16 17 21 21
2 1 2 2 2 3 1 2 2 1 1 3 5 4 2 3 4 6 5 5 6 7 8 8 7 7 7 7 7 7 6 6 6 8 11 12 10 9 10 11 12 12 13 13 14 15 15 15 16 15 15 15 15 16 17 17 17 17 17 18 18 17 17 16 16 17 19 20 22 23 24 24 24 24 25 24 24 24 24 23 23 23 24 24 24 24 23 22 20 19 18 18 18 18 18 20 20
3 1 1 2 1 3 2 3 2 1 2 3 6 4 2 3 5 5 4 4 6 7 8 8 8 8 8 7 8 8 7 7 6 7 11 15 15 12 10 10 11 11 12 12 12 13 13 13 13 14 14 14 14 15 15 16 16 16 15 15 16 15 15 15 15 17 18 20 22 23 23 23 24 24 24 24 24 24 24 24 24 24 25 25 25 25 24 23 23 22 21 21 21 21 20 20 21
2 3 3 3 4 3 3 3 1 2 4 2 5 3 2 4 5 4 4 4 4 6 6 7 7 7 7 7 8 8 8 7 7 10 14 17 18 16 12 11 11 11 10 11 11 11 11 11 11 12 13 13 14 13 14 14 14 14 14 14 14 13 13 13 14 16 17 19 21 21 22 22 22 23 23 23 23 22 22 22 22 23 23 23 23 23 22 21 21 21 21 21 21 21 20 20 20
1 5 4 4 3 3 3 2 2 4 3 4 5 1 2 1 4 3 1 1 3 5 5 7 7 8 8 7 8 7 7 7 8 12 17 20 21 18 14 13 12 10 10 10 10 10 10 10 10 10 10 11 12 12 12 12 12 13 13 13 12 11 11 11 13 15 16 17 19 19 19 20 20 21 21 21 21 21 20 21 21 21 21 20 20 20 20 19 19 19 19 19 19 19 19 19 19
3 3 3 2 2 3 3 5 5 4 3 5 4 1 2 1 4 4 3 4 4 4 5 6 7 8 8 7 7 7 7 7 7 9 14 19 22 21 19 16 13 11 10 10 9 10 9 9 9 9 9 9 10 10 11 11 11 11 11 11 11 11 10 11 13 14 14 15 16 16 16 16 17 18 18 18 19 18 18 19 19 19 19 19 19 18 18 17 17 16 16 17 17 17 16 16 18
4 3 4 3 2 4 2 3 3 0 4 2 2 2 0 4 6 4 5 6 5 6 6 6 6 8 8 8 8 7 6 7 6 6 9 14 17 20 21 20 17 13 11 10 9 9 10 9 9 9 9 9 9 9 9 10 10 10 10 10 10 9 9 10 11 12 12 13 12 12 13 13 14 15 15 16 16 15 15 16 16 16 17 17 17 16 16 15 14 15 15 15 16 15 15 14 16
6 4 4 3 3 4 2 3 2 2 5 2 2 2 2 3 4 4 5 6 6 6 6 6 7 7 8 8 7 7 6 6 6 5 8 12 15 18 20 19 18 16 13 11 9 9 10 10 10 10 9 9 9 9 8 8 9 9 9 9 9 9 8 8 8 9 9 10 9 10 10 10 11 12 12 13 13 12 12 13 13 14 15 14 14 14 13 13 13 13 14 14 15 14 14 15 15
3 1 3 3 3 2 2 3 1 3 5 5 3 1 1 2 2 5 5 6 6 5 5 6 6 6 7 7 7 7 7 7 6 6 8 12 15 16 18 18 18 17 15 13 11 9 10 11 10 10 10 10 9 9 8 8 8 8 8 8 8 8 8 8 7 7 7 7 7 7 8 8 8 9 9 9 9 9 9 10 11 11 12 11 11 11 11 11 11 11 12 13 13 13 13 14 15
1 2 3 2 2 3 1 2 3 1 3 4 3 2 4 3 3 3 3 5 5 4 4 4 5 6 5 5 7 7 7 7 6 6 8 14 16 16 16 17 17 16 15 14 13 10 10 11 11 11 11 10 10 10 9 8 8 8 8 8 8 8 8 7 7 6 5 5 5 5 5 5 6 6 6 7 7 7 7 7 7 8 8 8 8 8 9 9 8 8 9 10 11 11 11 12 12
1 2 2 1 3 5 4 1 0 4 2 4 2 3 5 3 2 4 5 3 4 4 5 5 5 6 6 7 7 7 7 8 7 7 9 13 16 16 16 15 15 15 14 14 13 12 10 9 10 12 12 11 11 10 10 10 9 9 8 8 8 7 7 7 6 5 5 4 4 3 3 3 3 3 4 4 4 4 4 4 4 5 5 5 6 6 6 6 6 6 7 8 9 9 8 10 10
2 2 0 1 2 4 3 1 3 5 1 4 3 3 5 3 1 4 5 3 6 6 5 6 6 6 7 7 7 8 8 8 8 9 11 13 14 15 15 15 13 12 12 12 12 12 12 10 9 11 12 13 12 11 11 11 11 10 10 9 8 8 7 7 6 6 5 4 4 3 3 2 2 2 1 1 1 1 1 2 2 2 3 3 3 4 4 4 4 5 6 6 7 7 7 8 8
3 3 2 1 2 2 2 2 2 3 2 5 5 4 4 2 3 4 4 5 7 7 6 6 7 6 6 7 8 9 9 8 8 8 10 13 15 15 15 15 13 11 10 11 10 11 12 11 10 9 10 11 12 13 13 13 13 12 11 11 10 9 9 8 8 7 7 6 5 4 4 3 3 3 3 2 2 2 2 1 1 1 1 1 1 2 2 2 3 4 5 5 6 6 6 7 7
4 3 2 2 3 2 1 1 1 1 1 3 5 5 3 5 5 4 5 7 6 6 6 6 7 6 6 6 7 8 8 8 8 7 9 14 17 16 15 14 14 12 10 10 10 10 11 11 11 10 9 9 10 12 14 14 15 14 14 13 12 12 11 10 10 10 10 9 7 7 6 6 6 6 5 5 5 4 5 4 4 5 4 4 4 3 3 3 3 4 4 5 5 5 6 6 6
3 3 3 3 2 1 1 0 1 3 2 1 2 5 5 5 4 6 7 7 5 6 6 6 7 6 7 7 7 7 7 8 8 7 10 15 18 16 15 14 13 12 11 10 9 9 10 10 11 11 11 10 9 9 11 14 15 16 16 16 15 14 13 13 12 13 13 12 10 10 9 8 9 9 8 8 8 7 7 7 8 8 8 8 7 6 6 6 6 6 6 6 6 6 7 7 7
1 1 2 1 1 2 2 2 3 1 2 3 2 4 8 6 3 5 6 5 5 5 5 6 7 7 8 8 7 7 7 8 8 9 12 16 18 17 15 14 13 13 11 10 10 9 9 10 10 10 11 11 9 8 8 10 13 15 17 17 17 17 16 16 16 16 16 15 14 13 12 12 12 12 11 11 11 11 10 11 11 11 11 11 11 10 10 10 9 9 9 9 9 9 9 9 10
Wind_Direction
341 342 355 4 346 334 6 49 66 6 68 74 18 46 7 347 319 335 348 352 360 331 346 318 327 27 78 94 103 91 69 73 72 333 294 301 323 329 332 340 349 353 354 358 358 353 337 324 310 291 273 279 273 247 227 220 221 215 214 212 208 210 212 210 206 197 184 178 176 173 169 142 132 143 147 154 149 160 161 166 165 143 133 126 118 116 112 109 107 105 106 107 109 112 117 117 114
358 357 33 90 14 8 244 55 91 11 62 75 9 47 318 330 352 354 336 342 342 302 311 300 12 62 93 116 116 100 64 86 103 321 264 304 320 329 337 345 350 353 357 0 359 351 342 331 325 305 272 276 281 272 240 229 226 222 224 222 219 216 215 214 206 201 189 178 176 171 164 145 149 155 152 152 148 159 166 177 171 152 141 131 127 127 120 112 111 110 110 109 111 116 122 120 115
10 25 96 137 23 35 93 42 83 77 78 104 16 331 327 351 341 321 305 291 293 302 299 290 83 33 70 101 69 85 68 100 56 356 288 319 329 330 338 349 351 353 356 360 2 349 343 342 337 313 276 270 276 285 271 257 239 229 230 230 227 220 217 217 210 203 195 186 182 178 175 165 168 168 161 153 144 160 173 186 177 162 147 134 136 140 133 120 116 116 114 112 112 117 128 132 128
29 44 94 119 54 34 53 43 83 99 81 117 86 313 341 341 312 306 298 293 301 332 342 3 64 357 20 60 27 90 57 351 10 359 316 326 329 326 337 349 351 358 358 360 5 352 344 345 345 321 288 283 279 274 271 270 252 240 235 232 228 222 219 219 212 202 199 197 190 187 184 180 179 177 174 163 159 171 180 190 180 167 151 141 144 147 147 136 125 123 119 116 115 115 128 141 143
55 61 75 87 79 33 78 68 58 73 83 123 97 303 331 311 309 313 305 303 311 9 14 6 52 13 47 51 13 95 353 303 338 351 325 322 328 330 338 347 352 3 360 0 5 358 346 341 347 335 303 299 292 276 271 263 254 248 242 233 227 226 221 219 214 202 200 203 200 197 192 193 193 188 184 180 182 182 185 191 180 167 157 150 151 155 157 150 141 137 127 122 122 117 123 138 149
69 64 65 74 83 85 78 64 60 66 117 145 97 293 320 316 316 315 314 305 268 34 28 12 23 65 67 42 30 95 39 354 319 342 334 327 336 341 344 346 355 4 0 1 2 1 355 341 338 336 317 297 294 302 289 263 257 251 245 234 229 229 220 220 218 207 203 205 207 203 201 206 207 202 196 195 196 192 191 193 186 172 165 162 158 161 167 167 162 153 139 133 132 125 126 135 145
77 58 54 67 60 48 73 71 83 71 70 111 110 285 320 327 320 324 340 344 326 18 22 7 340 105 87 116 67 106 55 24 337 341 342 338 345 350 350 349 357 5 3 2 359 359 1 350 331 331 326 300 284 302 294 263 260 252 249 242 236 232 226 226 218 211 207 207 211 206 204 208 211 207 202 202 203 203 199 194 193 181 178 174 163 166 177 182 176 165 151 145 147 142 143 145 140
61 65 30 69 50 36 77 76 77 111 54 63 69 278 330 335 329 349 358 8 354 337 359 348 331 83 77 84 98 149 37 12 359 352 349 350 353 354 355 352 354 3 6 5 1 357 360 358 338 330 328 309 280 285 282 266 262 254 255 251 244 235 231 225 213 212 211 211 213 211 208 210 214 211 207 203 196 200 205 201 194 186 185 178 166 173 182 188 190 180 161 150 152 150 151 155 152
51 50 58 73 78 58 73 70 55 107 28 9 357 321 339 338 344 16 358 8 355 317 351 339 339 47 352 48 52 180 16 2 1 359 358 359 356 356 358 356 353 357 4 6 4 359 359 360 349 334 328 316 290 279 278 272 261 253 252 250 246 235 230 225 219 216 213 215 215 212 213 215 217 215 213 205 192 192 200 202 196 191 186 175 173 182 187 194 203 198 171 151 141 139 146 160 169
39 29 90 77 83 77 60 57 57 81 15 331 347 342 350 337 358 30 4 6 354 328 339 334 28 29 341 72 51 150 9 358 1 1 2 1 357 357 357 0 359 357 1 5 6 4 360 357 351 342 333 317 296 283 277 271 261 255 249 248 246 235 230 230 230 224 216 215 215 211 212 219 221 220 218 211 203 198 200 199 198 196 188 181 185 191 194 198 206 202 171 151 145 145 134 157 175
46 3 86 80 68 89 106 114 104 119 330 339 346 351 6 345 4 33 6 7 351 337 341 356 36 9 355 39 151 156 358 359 2 360 0 360 358 358 356 0 3 1 1 2 4 6 4 358 351 347 342 321 301 292 280 268 264 260 249 249 250 241 231 228 231 234 233 226 221 215 213 220 223 224 219 214 210 205 206 201 198 198 193 192 194 196 199 198 202 195 171 159 168 171 129 141 170
74 352 60 78 67 108 135 126 93 327 326 4 357 340 5 13 34 12 359 13 348 342 1 14 360 328 26 358 250 270 352 360 0 358 360 360 359 358 358 359 2 5 3 2 1 3 6 3 356 350 346 330 310 300 289 276 267 259 248 242 245 243 235 230 227 234 244 243 234 225 224 223 222 226 220 215 213 210 212 207 202 201 198 197 199 202 201 200 201 195 184 182 183 182 131 103 157
92 75 81 79 51 96 92 98 24 360 359 5 341 321 347 44 43 354 331 7 356 3 356 343 319 354 63 326 295 328 351 356 356 358 359 359 359 359 359 359 2 5 4 4 2 1 4 4 0 354 348 337 323 310 297 292 280 264 249 238 238 241 240 235 231 235 244 247 241 233 232 228 223 228 223 216 215 215 217 214 208 204 203 201 202 205 204 203 201 201 200 192 189 192 170 121 147
111 135 93 101 34 82 96 72 19 64 31 332 323 321 343 50 51 351 33 25 7 6 314 317 327 73 40 334 318 332 345 349 354 359 359 358 358 360 1 1 2 4 5 5 3 1 2 2 360 357 354 344 335 324 307 301 295 280 257 243 239 240 241 237 236 243 246 247 245 238 234 229 224 224 222 218 218 219 219 219 215 209 207 205 205 206 205 202 203 212 211 193 190 192 161 141 146
108 138 81 103 37 42 92 68 62 91 74 339 348 327 340 50 227 30 37 33 353 314 309 336 11 54 11 344 308 322 339 347 355 359 358 358 360 3 4 2 2 2 3 4 4 2 0 359 356 356 357 353 344 333 321 312 300 298 277 248 241 241 244 240 240 248 248 248 246 243 238 233 229 225 223 222 220 221 222 222 219 214 210 209 209 208 206 202 207 218 209 189 189 192 165 154 155
95 113 70 83 40 40 63 38 60 69 16 313 337 343 4 323 345 64 2 46 318 323 3 359 5 48 147 265 279 326 342 350 358 358 358 0 2 5 6 5 2 1 1 2 3 2 359 358 354 353 355 355 350 340 329 322 308 308 299 257 244 242 241 238 241 246 246 249 249 248 245 241 236 231 229 228 223 221 225 225 221 218 213 211 211 210 206 201 208 212 205 194 189 192 173 164 162
49 76 64 69 47 46 41 11 73 72 296 305 337 9 31 323 332 66 150 62 37 324 1 325 336 78 147 282 303 332 347 356 359 360 2 4 4 3 4 4 2 360 359 358 360 1 359 356 354 353 353 353 350 346 335 327 319 315 306 271 251 243 239 234 235 241 240 243 248 246 243 243 241 237 234 231 227 222 225 228 225 221 215 214 213 211 206 201 208 205 202 206 193 186 174 167 164
43 72 65 82 57 42 127 219 187 144 313 308 328 352 30 353 326 335 90 25 8 333 337 326 328 5 353 342 336 341 352 1 3 4 6 6 4 1 359 359 359 357 356 355 355 358 358 356 353 352 353 353 350 346 339 332 323 315 308 286 260 248 242 231 229 238 237 235 241 241 237 239 241 240 236 232 232 229 229 231 228 225 220 218 213 207 205 199 202 201 199 206 193 181 178 168 163
62 100 72 103 171 132 176 193 201 161 244 278 299 321 27 15 302 347 27 331 349 11 340 334 331 323 342 347 347 347 354 3 6 7 7 6 4 360 355 353 354 353 352 352 351 354 358 356 352 351 352 351 351 347 341 336 325 317 311 299 273 253 246 233 230 235 235 237 240 240 236 235 240 241 239 235 236 237 236 235 233 230 223 219 215 204 202 198 193 198 198 199 188 180 180 170 166
62 98 79 150 195 167 201 199 192 200 194 205 295 315 22 336 283 11 14 319 349 4 330 339 333 323 329 333 342 346 355 4 6 6 6 4 2 359 354 351 350 350 349 348 348 352 356 357 352 350 352 351 351 348 343 339 329 320 313 306 286 260 247 236 232 234 233 241 246 244 241 236 237 239 240 239 238 239 240 238 237 237 229 220 216 204 199 196 186 193 197 195 187 178 177 171 170
52 77 111 165 178 127 204 206 196 213 179 155 219 349 356 294 292 70 67 6 343 316 290 310 300 307 312 316 336 352 2 6 5 6 4 360 357 356 353 348 347 348 349 348 350 353 354 357 354 349 351 352 352 349 344 341 332 321 315 313 297 272 250 236 233 234 231 237 246 248 246 239 236 238 239 239 239 238 239 239 237 240 239 230 220 203 192 188 182 193 199 194 183 174 174 170 173
70 44 122 155 157 121 204 220 216 217 123 81 69 36 336 292 4 117 106 93 283 281 284 280 266 284 303 315 342 1 7 6 5 4 0 356 354 352 351 350 350 350 351 351 350 353 353 355 355 351 351 352 353 352 346 342 335 323 316 320 310 290 254 237 235 232 231 235 240 244 246 241 238 239 238 238 239 237 238 239 236 237 240 241 229 203 185 182 183 196 201 191 180 175 174 172 177
91 60 29 154 175 130 190 303 8 77 60 38 34 303 303 3 335 206 137 193 225 255 279 276 276 306 338 353 1 6 4 2 0 359 355 351 349 349 350 349 350 349 349 350 350 353 354 355 354 352 354 353 352 352 348 343 338 328 318 321 318 306 262 244 241 225 228 233 232 236 241 242 242 241 240 237 237 236 236 235 233 234 236 238 227 202 187 185 186 198 201 190 182 177 176 174 176
79 100 7 13 111 59 3 347 26 40 48 331 272 316 315 327 327 353 250 248 249 302 332 360 354 8 16 14 8 3 359 357 355 354 354 351 347 347 349 348 348 348 347 349 351 353 355 356 353 352 356 355 351 351 350 345 339 333 321 318 321 313 271 254 240 221 226 227 224 230 235 244 246 243 240 236 237 236 232 231 232 231 230 227 215 201 193 189 191 201 199 190 186 183 181 173 168
60 101 284 30 29 356 351 5 16 2 343 316 344 341 302 257 270 351 280 274 297 325 13 17 10 18 19 12 0 359 358 354 352 352 353 352 349 348 351 351 349 350 349 350 350 352 354 355 354 354 356 357 353 350 350 348 342 336 328 323 326 319 296 283 212 215 223 217 216 224 231 247 248 244 243 235 234 234 228 227 229 228 226 218 207 202 199 193 196 203 201 196 190 186 181 172 168
46 93 61 54 7 345 10 19 10 345 330 5 0 340 319 305 321 303 279 296 330 354 22 4 13 19 4 358 353 358 355 347 349 347 346 349 351 350 351 353 351 351 350 350 350 351 353 354 355 356 357 357 355 354 350 350 347 342 337 332 331 327 314 325 169 192 201 199 207 218 230 247 248 248 248 237 230 228 226 223 223 225 225 218 206 202 202 199 201 205 205 197 191 192 189 179 174
98 97 89 69 17 359 25 18 6 350 351 23 359 334 323 331 358 311 293 319 343 10 9 349 19 12 344 344 343 350 346 339 344 341 341 347 351 349 350 352 352 354 354 353 354 353 353 354 355 357 360 359 357 359 354 350 351 349 345 339 336 341 334 356 129 164 171 180 197 214 229 242 246 251 251 239 229 222 220 219 221 224 223 219 211 208 208 207 207 210 208 195 191 199 201 190 182
87 98 84 24 4 26 22 14 5 352 90 29 6 334 331 347 24 308 293 323 14 37 353 340 12 354 334 331 331 339 334 335 341 339 340 343 347 346 347 353 352 355 358 357 359 359 358 356 357 358 1 1 358 0 357 352 355 354 350 346 343 357 1 24 96 136 149 165 188 206 219 226 232 243 243 227 218 214 208 196 199 212 216 214 211 213 212 208 207 208 200 186 189 197 201 201 194
72 76 91 350 358 34 13 1 349 348 85 2 28 35 345 337 341 302 309 332 37 41 348 333 350 332 325 322 325 329 324 333 338 336 340 339 346 346 346 354 354 355 358 359 3 6 6 1 359 1 1 1 359 359 359 355 359 3 359 358 356 3 17 31 68 99 122 153 181 196 199 205 215 224 215 189 177 182 182 171 169 178 190 194 196 201 195 186 190 189 180 179 191 195 191 189 180
149 32 87 4 7 16 1 356 342 360 83 348 35 75 330 291 277 295 326 348 21 360 325 317 330 321 322 321 323 318 318 331 331 331 337 341 348 349 349 356 357 356 357 359 4 8 11 8 4 4 3 1 360 359 359 357 6 17 12 13 17 17 30 34 52 85 105 131 160 173 163 148 147 144 144 142 130 135 147 150 150 151 160 169 170 174 178 179 181 182 179 181 187 183 170 159 154
29 8 44 30 32 338 341 5 2 15 9 351 47 104 319 296 292 304 330 356 68 316 302 309 320 316 321 320 322 311 313 324 324 326 333 340 348 351 353 359 1 1 360 360 3 7 11 13 11 8 6 5 5 1 356 358 10 24 24 25 34 37 44 41 47 77 93 106 127 140 139 129 124 124 122 124 111 100 113 120 124 126 135 151 151 157 175 178 175 175 173 170 166 159 149 140 140
30 27 1 1 29 321 325 354 29 22 305 349 52 90 307 290 291 311 338 12 90 292 298 308 313 314 320 317 320 308 308 321 325 329 334 340 346 350 354 360 4 5 5 3 3 7 9 11 12 11 10 11 13 3 355 2 16 29 34 36 45 48 52 46 47 69 81 93 109 116 122 123 123 127 125 120 115 105 96 98 101 102 105 114 117 127 150 157 163 164 153 152 148 139 132 125 125
12 52 41 326 3 343 331 340 30 17 310 347 37 107 282 286 298 321 347 18 43 292 295 304 307 308 312 311 314 306 307 320 325 332 341 344 344 348 352 359 5 7 10 7 5 9 9 12 15 14 13 13 13 2 356 8 25 36 43 46 51 54 55 47 47 63 73 88 102 103 110 118 116 119 119 111 105 102 95 90 90 91 93 96 98 103 109 111 122 133 129 130 133 126 123 118 115
348 30 41 308 330 320 333 326 345 8 21 356 5 110 239 282 298 320 341 3 357 275 291 303 305 305 306 309 306 303 310 310 315 327 339 345 344 349 354 359 4 6 11 11 10 12 11 14 18 16 15 13 9 5 4 11 29 43 48 51 56 56 53 47 51 59 64 84 99 95 101 112 111 110 110 107 103 101 94 88 86 84 88 93 98 100 101 103 102 108 110 109 114 118 121 120 117
294 340 9 328 311 286 310 302 335 4 22 10 6 17 296 302 310 323 333 356 328 268 285 294 298 304 304 310 303 300 310 297 307 325 335 342 344 349 355 359 2 4 9 13 14 13 11 13 16 17 15 11 5 8 13 16 30 45 49 52 56 56 49 47 58 57 54 75 90 87 94 104 106 105 105 103 100 99 94 87 85 83 84 85 90 98 100 103 102 104 107 107 113 117 119 121 120
209 224 154 262 308 295 279 272 315 355 1 5 9 339 295 306 319 325 325 347 328 284 306 304 299 306 300 306 301 300 307 292 308 327 336 342 345 349 354 357 359 3 8 12 15 14 12 11 11 13 12 8 5 9 15 17 25 37 44 49 52 50 42 46 62 61 55 70 80 79 88 94 95 96 96 93 88 91 91 85 82 81 84 86 90 98 98 100 102 104 108 113 118 118 116 116 116
173 151 164 206 267 294 286 278 303 342 359 340 347 313 286 291 301 307 316 334 330 311 319 309 302 307 303 306 306 308 301 294 314 330 339 344 347 351 354 356 358 2 7 12 16 14 12 11 9 8 7 8 10 12 17 19 22 30 39 48 48 43 41 50 61 62 59 70 76 78 84 86 89 89 88 85 78 80 87 87 88 82 83 89 92 95 98 101 103 105 109 115 119 118 114 113 116
149 158 211 228 286 299 289 260 306 343 28 320 356 352 310 303 300 301 323 336 318 303 301 301 305 304 302 303 305 312 302 304 323 334 341 347 348 351 352 355 359 1 4 10 16 14 12 11 10 8 6 9 13 13 16 21 25 30 37 48 51 47 49 55 59 59 62 69 72 74 78 79 82 82 81 82 81 83 87 89 91 86 84 89 93 96 99 102 103 107 114 115 116 115 113 118 126
142 253 209 336 341 315 302 288 323 350 50 335 358 8 313 307 300 292 309 313 291 285 270 277 294 298 303 306 308 316 314 316 325 327 335 343 345 347 349 354 359 1 1 6 12 14 13 11 9 10 8 10 12 10 9 15 25 30 35 47 56 55 55 57 58 59 61 64 65 67 69 71 73 75 77 80 82 85 86 86 87 88 89 91 95 96 94 96 98 104 113 116 116 112 107 113 127
77 20 73 14 333 355 309 303 335 345 36 322 336 2 306 317 327 304 291 282 289 297 285 272 266 269 282 294 296 294 299 308 313 314 323 333 340 344 347 351 354 358 360 3 7 10 13 12 9 9 9 11 14 13 10 11 18 25 36 49 56 59 58 58 60 60 60 61 61 62 63 64 65 68 71 73 76 78 79 80 82 85 88 90 94 93 90 88 89 94 104 115 122 114 102 93 97
334 68 102 97 323 311 240 282 335 337 303 326 7 35 320 330 357 322 310 330 324 331 341 331 313 280 281 296 293 272 266 283 294 302 312 322 332 338 343 345 347 355 359 360 3 4 6 10 10 10 10 12 15 17 17 18 25 35 47 54 56 59 58 55 54 55 57 58 59 60 62 63 63 64 65 65 67 69 71 74 77 81 84 85 86 85 85 84 85 89 96 105 113 110 103 91 87
320 270 139 130 309 277 264 309 345 14 27 358 35 58 302 314 341 312 325 350 333 341 5 353 334 329 331 321 310 301 287 275 272 279 298 309 318 327 335 340 343 349 355 358 0 1 2 5 9 11 12 14 15 18 21 26 34 41 47 52 53 55 54 52 51 52 56 60 62 63 63 65 66 66 67 67 67 68 70 72 75 79 81 81 80 81 82 82 82 84 88 93 99 104 106 96 87
349 327 113 80 300 260 279 328 22 78 35 333 42 105 253 313 327 301 316 332 320 338 360 348 337 340 338 322 311 312 309 304 296 290 296 302 308 318 325 333 338 341 348 354 358 0 2 4 6 8 12 16 17 17 19 25 33 39 46 50 53 58 60 60 60 61 64 66 67 67 66 66 66 67 68 69 70 71 73 75 77 77 77 77 78 78 78 78 79 80 83 89 95 102 104 99 93
320 353 57 318 278 204 205 53 90 87 299 327 19 88 151 293 282 281 306 333 335 349 351 338 335 330 324 319 314 312 307 307 307 303 305 307 305 306 313 322 327 333 340 345 352 358 2 4 3 3 6 13 18 19 18 22 27 34 42 48 53 59 65 69 68 67 68 68 69 69 69 68 68 69 70 72 73 75 77 79 80 79 78 78 77 78 79 79 81 84 86 88 91 94 93 96 100
275 201 57 293 145 140 116 80 79 5 40 347 338 32 78 276 274 296 339 12 347 338 330 318 317 316 315 318 318 319 317 310 301 297 302 307 308 304 303 308 314 322 330 335 343 351 357 1 3 1 2 7 15 18 19 21 24 28 35 43 50 55 60 65 67 68 69 70 71 73 74 74 74 74 74 76 77 78 79 81 81 81 81 81 80 82 84 85 86 87 87 87 88 90 91 94 98
280 120 81 53 70 68 66 75 98 47 47 315 295 1 59 274 287 317 1 20 326 307 305 294 293 301 307 315 319 319 321 321 319 312 310 313 316 313 303 296 303 313 317 324 332 339 347 353 358 3 3 3 8 12 16 19 23 26 29 34 42 49 54 58 60 63 66 68 71 74 76 78 80 80 80 80 80 80 80 80 80 80 80 81 82 83 84 84 84 84 85 86 87 89 91 92 94
72 88 56 48 40 31 50 31 79 67 359 256 244 339 88 288 292 270 288 329 267 270 292 296 304 316 319 319 318 318 320 321 323 322 324 329 332 333 322 305 302 305 305 313 320 326 335 340 347 357 1 3 5 7 11 13 17 24 27 29 33 39 45 50 54 59 62 62 66 72 76 78 80 81 81 82 82 82 82 82 82 82 83 82 82 82 82 82 82 83 84 84 84 86 88 89 91
109 97 79 87 352 10 33 350 34 70 307 257 226 282 99 185 275 252 254 273 244 225 253 284 306 316 316 314 312 316 318 319 320 322 328 334 339 342 339 329 320 310 301 303 309 314 321 327 333 343 351 357 1 4 7 7 10 16 22 25 28 32 36 39 45 53 56 57 62 68 72 74 77 78 78 78 79 79 80 81 82 82 82 82 81 82 81 82 82 83 83 83 82 83 85 87 88
29 38 58 70 355 10 26 329 5 171 272 241 195 307 350 220 251 257 270 277 255 224 227 251 279 294 304 310 313 317 317 318 321 320 324 329 333 336 338 337 334 326 314 305 299 301 308 316 320 327 336 343 351 358 1 3 5 7 14 18 21 27 32 34 41 48 51 55 60 63 66 68 72 75 75 75 75 74 73 74 75 75 76 77 78 80 81 82 84 84 85 86 87 88 88 89 90
4 16 45 62 66 35 336 293 340 291 283 274 226 285 304 280 270 229 236 263 258 241 238 248 258 271 288 296 301 308 312 318 321 317 318 322 328 332 335 337 337 337 334 321 303 293 295 303 310 315 322 327 334 343 350 355 357 358 4 9 13 18 23 28 38 46 49 53 55 57 62 65 69 73 75 76 76 75 73 72 73 74 76 77 77 79 80 81 81 82 85 86 88 91 91 92 95
340 171 100 85 116 87 290 259 280 288 293 298 294 279 209 279 278 209 229 271 271 259 257 259 259 258 269 290 306 316 319 323 325 318 314 318 326 333 336 338 341 344 346 341 328 307 293 293 301 306 311 316 320 325 332 337 342 348 351 355 2 9 14 19 24 32 42 50 50 51 57 63 69 75 76 79 79 76 73 74 75 76 79 79 79 79 78 78 77 77 81 84 88 91 91 93 96
285 155 83 59 158 123 101 191 186 226 316 299 295 248 213 229 262 263 301 294 272 287 302 308 303 289 301 325 327 326 322 319 324 324 316 319 328 336 338 340 344 348 352 354 351 336 310 295 293 294 300 306 308 314 319 321 325 330 335 342 348 354 1 7 10 13 18 27 36 42 49 57 64 70 75 80 80 77 75 74 76 79 81 81 81 80 78 77 77 77 82 87 91 95 95 95 97
356 50 40 241 168 122 106 202 337 61 30 283 301 292 289 325 303 307 353 328 269 304 322 322 308 310 340 348 328 319 315 313 316 311 307 314 324 332 338 341 344 349 354 358 360 354 338 317 297 290 290 292 297 305 308 310 313 314 318 325 329 336 341 346 351 352 351 355 3 13 24 40 50 57 67 75 76 77 76 75 76 81 86 87 86 86 85 85 85 88 94 97 100 104 103 102 103
64 57 190 195 96 82 96 83 353 34 15 282 326 302 294 343 331 307 338 302 274 282 291 304 306 320 344 334 314 309 304 302 304 304 307 313 320 326 334 339 341 344 350 355 359 356 351 344 323 303 293 288 289 294 295 297 300 302 306 309 311 316 319 322 326 323 321 321 318 327 341 347 351 357 12 42 63 72 75 78 79 83 90 94 95 96 95 97 101 107 112 115 117 119 118 117 118
75 110 157 105 75 16 26 64 21 11 331 297 313 305 270 230 234 281 273 247 262 277 288 301 298 307 324 313 308 310 307 308 308 308 312 315 319 323 328 334 336 339 345 347 351 354 352 349 343 329 313 298 288 282 283 287 291 294 297 298 299 300 302 305 306 303 301 298 295 295 293 291 294 293 291 287 280 277 270 257 255 239 215 188 158 141 131 130 132 134 136 137 138 140 143 142 143
22 54 5 22 109 143 9 67 132 144 313 301 319 331 286 231 218 210 230 237 243 266 285 284 271 278 293 294 300 303 303 307 305 304 305 309 316 322 326 328 331 334 337 336 338 347 349 346 345 341 331 317 298 284 280 280 284 287 288 289 291 292 293 295 294 292 292 290 287 282 278 276 276 276 276 273 272 272 268 264 264 257 251 245 234 225 219 206 195 188 178 173 174 173 175 178 178
355 28 14 6 34 61 70 29 111 124 139 211 319 315 278 250 208 192 226 246 235 236 255 265 266 273 284 288 291 291 293 295 294 294 299 304 311 319 323 325 326 326 325 323 323 331 341 343 343 340 335 330 318 300 286 280 280 280 281 283 285 286 287 286 285 284 284 285 282 278 277 274 269 269 270 269 269 267 265 264 262 261 260 255 250 245 239 234 231 225 217 213 213 213 215 215 217
181 121 122 123 33 59 79 328 319 90 141 172 162 287 276 264 210 206 228 241 241 238 236 254 271 274 282 289 284 281 285 286 288 293 297 300 304 310 315 316 318 319 317 312 308 312 323 333 336 335 334 334 330 317 297 284 279 276 276 279 281 282 281 279 278 278 278 280 280 278 276 270 268 269 267 267 267 264 262 262 261 261 261 258 257 254 249 246 244 242 240 238 238 238 238 239 241